Location: Bougoudala
(13.2282°N, 4.9477°W)
Time: 13:39:02
(UTC+00:00)

FUSE - Pass Details

Date: 29 January 2020
Orbit: 742 x 756 km, 25.0° (Epoch: 24 February)

Event Time Altitude Azimuth Distance (km) Brightness Sun altitude
Rises 19:33:51 0° 299° (WNW) 3,172 7.9 -18.3°
Reaches altitude 10° 19:36:26 10° 306° (NW) 2,251 6.9 -18.9°
Maximum altitude 19:41:30 43° 17° (NNE) 1,041 4.4 -20.1°
Enters shadow 19:42:32 38° 47° (NE) 1,119 4.4 -20.3°
